Simultaneous Nadir Overpasses (SNOs) Predictions

Prediction of SNOs between GOES-16 and METOP-C Satellite Orbit:

Table of predicted SNOs for the next 14.0 days since TLE Epoch: 8/5/2023
Index Date Time (GOES-16) GOES-16 Lat,Lon METOP-C Lat,Lon Distance(km) Time Diff (sec)
1 08/05/2023 02:42:23 0.00, -75.19 0.00, -77.84 294.90 80
2 08/06/2023 02:18:54 0.00, -75.20 0.57, -72.73 282.50 80
3 08/07/2023 14:40:27 0.00, -75.24 0.48, -77.29 234.36 80
4 08/08/2023 14:17:08 0.00, -75.26 -0.68, -72.31 336.34 80
5 08/10/2023 02:38:47 0.00, -75.27 -0.36, -76.90 185.78 80
6 08/11/2023 02:15:28 0.00, -75.29 0.74, -71.91 385.10 80
7 08/12/2023 14:37:01 -0.00, -75.33 0.24, -76.49 131.01 80
8 08/13/2023 14:13:42 -0.00, -75.35 -0.87, -71.49 440.29 80
9 08/15/2023 02:35:21 0.00, -75.38 -0.15, -76.09 80.62 80
10 08/16/2023 02:12:02 0.00, -75.41 0.96, -71.09 491.19 80
11 08/17/2023 14:33:34 -0.00, -75.46 0.07, -75.66 23.50 80
